DW7325 Weather Reports


Display with metric or nautical units.
time (UTC)temp
F
wind
direction
speed
MPH
gust
MPH
rain 1hr
in
rain 24hr
in
rain mn
in
humidity
%
barometer
mb
20260906234133 71 26 0.0 0.0 0.00 0.01 0.01 74 1014.1
20260906234028 71 26 0.0 0.0 0.00 0.01 0.01 74 1014.1
20260906233924 71 26 0.0 0.0 0.00 0.01 0.01 73 1014.1
20260906233817 71 26 0.0 0.0 0.00 0.01 0.01 74 1014.1
20260906233710 71 26 0.0 0.0 0.00 0.01 0.01 73 1014.1
20260906233604 71 26 0.0 0.0 0.00 0.01 0.01 73 1014.1
20260906233500 71 26 0.0 0.0 0.00 0.01 0.01 74 1014.1
20260906233356 72 26 0.0 0.0 0.00 0.01 0.01 73 1014.1
20260906233250 72 26 0.0 0.0 0.00 0.01 0.01 73 1014.1
20260906233142 72 26 0.0 0.0 0.00 0.01 0.01 73 1014.1
20260906233037 72 26 0.0 0.0 0.00 0.01 0.01 73 1014.1
20260906232710 72 26 0.0 0.0 0.00 0.01 0.01 74 1014.0
20260906232607 72 26 0.0 0.0 0.00 0.01 0.01 74 1014.0
20260906232501 72 26 0.0 0.0 0.00 0.01 0.01 73 1013.9
20260906232358 72 26 0.0 0.0 0.00 0.01 0.01 73 1013.9
20260906232254 72 26 0.0 0.0 0.00 0.01 0.01 73 1013.9
20260906232146 72 26 0.0 0.0 0.00 0.01 0.01 74 1013.9
20260906232041 72 26 0.0 0.0 0.00 0.01 0.01 75 1013.9
20260906231939 72 26 0.0 0.0 0.00 0.01 0.01 75 1013.9
20260906231831 72 26 0.0 0.0 0.00 0.01 0.01 75 1013.9
20260906231726 72 26 0.0 0.0 0.00 0.01 0.01 74 1013.9
20260906231619 72 26 0.0 0.0 0.00 0.01 0.01 72 1013.9
20260906231516 72 26 0.0 0.0 0.00 0.01 0.01 71 1013.9
20260906231408 72 26 0.0 0.0 0.00 0.01 0.01 70 1013.9
20260906231306 73 26 0.0 0.0 0.00 0.01 0.01 70 1013.9
20260906231200 73 26 0.0 0.0 0.00 0.01 0.01 72 1013.9
20260906231058 73 26 0.0 0.0 0.00 0.01 0.01 72 1013.9
20260906230952 73 26 0.0 0.0 0.00 0.01 0.01 74 1013.8
20260906230414 73 26 0.0 0.0 0.00 0.01 0.01 69 1013.9
20260906230312 73 26 0.0 0.0 0.00 0.01 0.01 70 1013.9
20260906230206 73 26 0.0 0.0 0.00 0.01 0.01 67 1013.8
20260906230059 73 26 0.0 0.0 0.00 0.01 0.01 68 1013.8
20260906225953 73 26 0.0 0.0 0.00 0.01 0.01 70 1013.8
20260906225846 73 26 0.0 0.0 0.00 0.01 0.01 68 1013.8
20260906225523 73 26 0.0 0.0 0.00 0.01 0.01 70 1013.8
20260906225419 73 26 0.0 0.0 0.00 0.01 0.01 68 1013.8
20260906225313 73 26 0.0 0.0 0.00 0.01 0.01 68 1013.8
20260906224949 74 26 0.0 0.0 0.00 0.01 0.01 67 1013.7
20260906224844 74 26 0.0 0.0 0.00 0.01 0.01 69 1013.7
20260906224741 74 26 0.0 0.0 0.00 0.01 0.01 68 1013.7
20260906224635 74 26 0.0 0.0 0.00 0.01 0.01 67 1013.7
20260906224311 74 26 0.0 0.0 0.00 0.01 0.01 71 1013.6
20260906224204 74 26 0.0 0.0 0.00 0.01 0.01 70 1013.7
20260906224056 74 26 0.0 0.0 0.00 0.01 0.01 70 1013.7
20260906223953 74 26 0.0 0.0 0.00 0.01 0.01 72 1013.7
20260906223844 74 26 0.0 0.0 0.00 0.01 0.01 73 1013.7
20260906223521 74 26 0.0 1.0 0.00 0.01 0.01 69 1013.6
20260906223415 74 26 0.0 1.0 0.00 0.01 0.01 70 1013.6
20260906223053 74 290 0.0 1.0 0.00 0.01 0.01 66 1013.6
20260906222946 75 290 0.0 1.0 0.00 0.01 0.01 67 1013.6
20260906222840 75 290 0.0 1.0 0.00 0.01 0.01 68 1013.6
20260906222738 75 290 0.0 1.0 0.00 0.01 0.01 65 1013.6
20260906222630 75 290 0.0 1.0 0.00 0.01 0.01 66 1013.6
20260906222526 75 272 0.0 1.0 0.00 0.01 0.01 66 1013.6
20260906222420 75 272 0.0 1.0 0.00 0.01 0.01 65 1013.6
20260906222057 75 272 0.0 0.0 0.00 0.01 0.01 66 1013.6
20260906221950 75 272 0.0 0.0 0.00 0.01 0.01 64 1013.6
20260906221842 75 272 0.0 0.0 0.00 0.01 0.01 65 1013.6
20260906221257 75 272 0.0 0.0 0.00 0.01 0.01 64 1013.6
20260906221153 75 272 0.0 0.0 0.00 0.01 0.01 66 1013.7
20260906221048 75 272 0.0 0.0 0.00 0.01 0.01 64 1013.7
20260906220944 75 272 0.0 0.0 0.00 0.01 0.01 64 1013.6
20260906220841 75 272 0.0 1.0 0.00 0.01 0.01 65 1013.6
20260906220735 76 272 0.0 1.0 0.00 0.01 0.01 68 1013.7
20260906220633 76 272 0.0 1.0 0.00 0.01 0.01 64 1013.6
20260906220531 76 272 0.0 1.0 0.00 0.01 0.01 64 1013.6
20260906220427 76 272 0.0 1.0 0.00 0.01 0.01 69 1013.6
20260906220321 76 272 0.0 1.0 0.00 0.01 0.01 64 1013.6
20260906215957 76 307 0.0 1.0 0.00 0.01 0.01 65 1013.6
20260906215634 76 355 0.0 1.0 0.00 0.01 0.01 69 1013.5
20260906215532 76 276 0.0 1.0 0.00 0.01 0.01 68 1013.6
20260906215205 76 329 0.0 0.0 0.00 0.01 0.01 69 1013.5
20260906215057 76 329 0.0 3.0 0.00 0.01 0.01 70 1013.5
20260906214953 76 329 0.0 3.0 0.00 0.01 0.01 66 1013.5
20260906214849 76 334 0.0 3.0 0.00 0.01 0.01 67 1013.5
20260906214744 76 344 0.0 1.0 0.00 0.01 0.01 69 1013.5
20260906214640 76 344 0.0 1.0 0.00 0.01 0.01 66 1013.5
20260906214535 76 344 0.0 1.0 0.00 0.01 0.01 70 1013.5
20260906214431 76 344 0.0 1.0 0.00 0.01 0.01 70 1013.5
20260906214329 76 344 0.0 1.0 0.00 0.01 0.01 66 1013.5
20260906214222 76 44 0.0 1.0 0.00 0.01 0.01 70 1013.5
20260906214119 76 44 0.0 1.0 0.00 0.01 0.01 72 1013.5
20260906214016 76 44 0.0 1.0 0.00 0.01 0.01 72 1013.5
20260906213912 76 44 0.0 1.0 0.00 0.01 0.01 68 1013.5
20260906213805 76 44 0.0 1.0 0.00 0.01 0.01 64 1013.6
20260906213659 76 44 0.0 1.0 0.00 0.01 0.01 67 1013.6
20260906213553 76 44 0.0 1.0 0.00 0.01 0.01 66 1013.6
20260906213451 76 44 0.0 1.0 0.00 0.01 0.01 64 1013.6
20260906213125 76 333 0.0 1.0 0.00 0.01 0.01 69 1013.6
20260906213023 76 333 0.0 1.0 0.00 0.01 0.01 66 1013.6
20260906212918 76 333 0.0 1.0 0.00 0.01 0.01 64 1013.6
20260906212813 76 333 0.0 1.0 0.00 0.01 0.01 65 1013.6
20260906212708 76 333 0.0 1.0 0.00 0.01 0.01 67 1013.6
20260906212603 76 333 0.0 1.0 0.00 0.01 0.01 66 1013.6
20260906212240 76 333 0.0 1.0 0.00 0.01 0.01 64 1013.6
20260906212134 76 333 0.0 1.0 0.00 0.01 0.01 67 1013.6
20260906212029 76 333 0.0 1.0 0.00 0.01 0.01 66 1013.6
20260906211448 76 295 0.0 0.0 0.00 0.01 0.01 69 1013.6
20260906211341 76 295 0.0 0.0 0.00 0.01 0.01 65 1013.6
20260906211235 76 295 0.0 1.0 0.00 0.01 0.01 64 1013.6
20260906211131 76 295 0.0 1.0 0.00 0.01 0.01 65 1013.6
20260906211027 76 295 0.0 1.0 0.00 0.01 0.01 66 1013.6
20260906210924 76 296 0.0 1.0 0.00 0.01 0.01 64 1013.6
20260906210600 76 351 0.0 0.0 0.00 0.02 0.01 66 1013.6
20260906210234 75 351 0.0 0.0 0.00 0.02 0.01 67 1013.6
20260906210131 75 351 0.0 0.0 0.00 0.02 0.01 68 1013.7
20260906205805 75 351 0.0 0.0 0.00 0.06 0.01 65 1013.6
20260906205440 76 351 0.0 0.0 0.00 0.07 0.01 65 1013.6
20260906205333 76 351 0.0 0.0 0.00 0.07 0.01 64 1013.6
20260906205227 76 351 0.0 0.0 0.00 0.07 0.01 64 1013.7
20260906205122 76 351 0.0 2.0 0.00 0.07 0.01 65 1013.7
20260906205013 76 351 0.0 2.0 0.00 0.07 0.01 65 1013.7
20260906204907 76 351 0.0 2.0 0.00 0.07 0.01 67 1013.7
20260906204800 76 351 0.0 2.0 0.00 0.07 0.01 65 1013.7
20260906204654 76 351 0.0 2.0 0.00 0.07 0.01 66 1013.7
20260906204547 76 351 0.0 2.0 0.00 0.07 0.01 63 1013.7
20260906204441 76 351 0.0 2.0 0.00 0.07 0.01 67 1013.7
20260906204333 76 295 0.0 2.0 0.00 0.07 0.01 65 1013.7
20260906204227 76 295 0.0 2.0 0.00 0.07 0.01 67 1013.7
20260906204125 76 295 0.0 2.0 0.00 0.07 0.01 70 1013.7
20260906204022 77 355 0.0 2.0 0.00 0.07 0.01 68 1013.7
20260906203915 77 307 0.0 2.0 0.00 0.07 0.01 70 1013.7
20260906203812 77 277 0.0 2.0 0.00 0.07 0.01 71 1013.7
20260906203708 77 314 0.0 1.0 0.00 0.07 0.01 69 1013.7
20260906203604 77 46 0.0 1.0 0.00 0.07 0.01 68 1013.7
20260906203501 77 46 0.0 1.0 0.00 0.07 0.01 67 1013.7
20260906202915 77 236 0.0 4.0 0.00 0.07 0.01 67 1013.6
20260906202810 77 236 0.0 4.0 0.00 0.07 0.01 69 1013.7
20260906202704 77 265 0.0 4.0 0.00 0.07 0.01 69 1013.7
20260906202558 77 279 0.0 4.0 0.00 0.07 0.01 70 1013.7
20260906202451 77 252 0.0 4.0 0.00 0.07 0.01 66 1013.6
20260906202348 77 283 0.0 4.0 0.00 0.07 0.01 69 1013.7
20260906202242 77 317 0.0 4.0 0.00 0.07 0.01 70 1013.7
20260906202135 77 5 0.0 4.0 0.00 0.07 0.01 71 1013.7
20260906202031 77 5 0.0 4.0 0.00 0.07 0.01 73 1013.7
20260906201928 77 5 0.0 4.0 0.00 0.07 0.01 73 1013.7
20260906201823 77 5 0.0 4.0 0.00 0.07 0.01 69 1013.6
20260906201719 77 5 0.0 4.0 0.00 0.07 0.01 69 1013.6
20260906201615 77 5 0.0 4.0 0.00 0.07 0.01 67 1013.6
20260906201508 78 5 0.0 4.0 0.00 0.07 0.01 65 1013.6
20260906201402 78 307 0.0 4.0 0.00 0.07 0.01 65 1013.6
20260906201300 78 270 0.0 4.0 0.00 0.07 0.01 65 1013.6
20260906201154 78 306 0.0 4.0 0.00 0.07 0.01 64 1013.6
20260906201048 79 190 0.0 4.0 0.00 0.07 0.01 59 1013.5
20260906200945 79 101 0.0 4.0 0.00 0.07 0.01 55 1013.5
20260906200146 78 271 0.0 6.0 0.00 0.07 0.01 62 1013.6
20260906200044 78 87 0.0 6.0 0.00 0.07 0.01 61 1013.6
20260906195722 78 83 0.0 6.0 0.00 0.07 0.01 67 1013.6
20260906195619 78 247 0.0 6.0 0.00 0.07 0.01 67 1013.6
20260906195513 79 334 0.0 6.0 0.00 0.07 0.01 62 1013.6
20260906195408 79 311 0.0 6.0 0.00 0.07 0.01 62 1013.5
20260906195306 79 23 0.0 6.0 0.00 0.07 0.01 62 1013.5
20260906195158 79 52 1.0 6.0 0.00 0.07 0.01 59 1013.5
20260906195052 79 52 1.0 6.0 0.00 0.07 0.01 59 1013.5
20260906194947 78 45 1.0 6.0 0.00 0.07 0.01 61 1013.6
20260906194619 78 310 0.0 6.0 0.00 0.07 0.01 60 1013.6
20260906194250 78 305 0.0 6.0 0.00 0.07 0.01 61 1013.7
20260906194142 78 283 0.0 2.0 0.00 0.07 0.01 58 1013.6
20260906194035 78 239 0.0 2.0 0.00 0.07 0.01 59 1013.6
20260906193713 78 272 0.0 2.0 0.00 0.07 0.01 63 1013.6
20260906193606 78 351 0.0 2.0 0.00 0.07 0.01 59 1013.6
20260906193500 78 294 0.0 2.0 0.00 0.07 0.01 58 1013.6
20260906193356 78 325 0.0 2.0 0.00 0.07 0.01 57 1013.6
20260906193253 78 121 0.0 2.0 0.00 0.07 0.01 57 1013.6
20260906193148 78 133 0.0 2.0 0.00 0.07 0.01 57 1013.6
20260906193044 78 144 0.0 3.0 0.00 0.07 0.01 58 1013.6
20260906192941 78 17 0.0 3.0 0.00 0.07 0.01 60 1013.6
20260906192617 78 251 0.0 3.0 0.00 0.07 0.01 65 1013.7
20260906192037 79 100 1.0 4.0 0.00 0.07 0.01 61 1013.7
20260906191931 79 86 0.0 4.0 0.00 0.07 0.01 56 1013.6
20260906191827 79 120 0.0 4.0 0.00 0.07 0.01 61 1013.7
20260906191720 79 91 0.0 4.0 0.00 0.07 0.01 63 1013.7
20260906191617 78 105 0.0 4.0 0.00 0.07 0.01 58 1013.7
20260906191513 78 0 0.0 4.0 0.00 0.07 0.01 57 1013.7
20260906191408 78 273 0.0 4.0 0.00 0.07 0.01 62 1013.7
20260906191306 78 171 0.0 4.0 0.00 0.07 0.01 64 1013.7
20260906191200 78 282 0.0 4.0 0.00 0.07 0.01 60 1013.7
20260906191055 78 346 0.0 4.0 0.00 0.07 0.01 61 1013.8
20260906190947 78 232 0.0 4.0 0.00 0.07 0.01 61 1013.8
20260906190842 78 144 0.0 4.0 0.00 0.07 0.01 63 1013.8
20260906190738 78 347 0.0 4.0 0.00 0.07 0.01 60 1013.8
20260906190633 78 289 0.0 4.0 0.00 0.07 0.01 62 1013.8
20260906190527 78 238 0.0 4.0 0.00 0.07 0.01 64 1013.8
20260906190422 78 283 0.0 4.0 0.00 0.07 0.01 63 1013.8
20260906190058 78 19 0.0 4.0 0.00 0.07 0.01 61 1013.9
20260906185951 79 29 0.0 2.0 0.00 0.07 0.01 59 1013.9
20260906185843 79 355 0.0 2.0 0.00 0.07 0.01 58 1013.9
20260906185516 79 319 0.0 2.0 0.00 0.07 0.01 60 1013.9
20260906185410 78 103 0.0 2.0 0.00 0.07 0.01 60 1013.9
20260906185306 79 103 0.0 2.0 0.00 0.07 0.01 61 1013.9
20260906184945 79 255 0.0 4.0 0.00 0.07 0.01 59 1014.0
20260906184840 79 244 0.0 4.0 0.00 0.07 0.01 59 1014.0
20260906184735 79 36 0.0 4.0 0.00 0.07 0.01 63 1014.0
20260906184631 79 329 0.0 4.0 0.00 0.07 0.01 63 1014.0
20260906184529 79 126 0.0 4.0 0.00 0.07 0.01 62 1014.0
20260906184423 79 133 0.0 4.0 0.00 0.07 0.01 62 1014.0
20260906184317 79 259 0.0 4.0 0.00 0.07 0.01 60 1014.0
20260906184215 78 23 0.0 4.0 0.00 0.07 0.01 61 1014.0
20260906184109 79 9 0.0 4.0 0.00 0.07 0.01 60 1014.0
20260906184007 79 211 0.0 4.0 0.00 0.07 0.01 64 1014.0
20260906183903 78 132 0.0 4.0 0.00 0.07 0.01 60 1014.0
20260906183759 79 307 0.0 4.0 0.00 0.07 0.01 62 1014.0
20260906183653 79 277 0.0 4.0 0.00 0.07 0.01 58 1014.1
20260906183326 79 274 0.0 4.0 0.00 0.07 0.01 59 1014.1
20260906183220 79 275 0.0 4.0 0.00 0.07 0.01 59 1014.1
20260906183116 79 319 0.0 4.0 0.00 0.07 0.01 56 1014.1
20260906183013 79 137 0.0 4.0 0.00 0.07 0.01 57 1014.1
20260906182905 79 278 0.0 4.0 0.00 0.07 0.01 58 1014.2
20260906182800 80 232 0.0 4.0 0.00 0.07 0.01 58 1014.1
20260906182657 80 12 0.0 4.0 0.00 0.07 0.01 60 1014.2
20260906182554 79 57 0.0 4.0 0.00 0.07 0.01 59 1014.1
20260906182447 79 93 0.0 4.0 0.00 0.07 0.01 63 1014.1
20260906182119 79 44 0.0 4.0 0.00 0.07 0.01 59 1014.2
20260906181750 79 241 0.0 4.0 0.00 0.07 0.01 60 1014.2
20260906181648 79 215 0.0 4.0 0.00 0.07 0.01 58 1014.1
20260906181546 79 343 1.0 4.0 0.00 0.07 0.01 57 1014.2
20260906181219 80 43 1.0 4.0 0.00 0.07 0.01 56 1014.1
20260906181117 79 42 1.0 4.0 0.00 0.07 0.01 57 1014.2
20260906181014 80 185 1.0 4.0 0.00 0.07 0.01 58 1014.2
20260906180909 80 130 1.0 4.0 0.00 0.07 0.01 62 1014.2
20260906180807 80 188 1.0 4.0 0.00 0.07 0.01 59 1014.2
20260906180702 80 355 1.0 4.0 0.00 0.07 0.01 62 1014.2
20260906180557 80 11 1.0 4.0 0.00 0.07 0.01 61 1014.2
20260906180455 80 22 1.0 4.0 0.00 0.07 0.01 64 1014.2
20260906180126 79 303 1.0 4.0 0.00 0.07 0.01 59 1014.2
20260906180022 79 282 1.0 4.0 0.00 0.07 0.01 60 1014.2
20260906175918 79 255 1.0 4.0 0.00 0.07 0.01 59 1014.2
20260906175815 79 242 1.0 3.0 0.00 0.07 0.01 60 1014.2
20260906175709 80 233 0.0 3.0 0.00 0.07 0.01 64 1014.2
20260906175602 80 340 1.0 3.0 0.00 0.07 0.01 64 1014.2
20260906175456 79 9 0.0 3.0 0.00 0.07 0.01 62 1014.2
20260906175354 79 65 0.0 3.0 0.00 0.07 0.01 58 1014.2
20260906175249 80 163 1.0 3.0 0.00 0.07 0.01 59 1014.2
20260906175145 80 246 1.0 6.0 0.00 0.07 0.01 60 1014.3
20260906175043 80 85 1.0 6.0 0.00 0.07 0.01 62 1014.3
20260906174715 80 258 1.0 6.0 0.00 0.07 0.01 61 1014.3
20260906174613 80 121 1.0 6.0 0.00 0.07 0.01 60 1014.2
20260906174509 80 344 1.0 6.0 0.00 0.07 0.01 62 1014.3
20260906174404 80 71 1.0 6.0 0.00 0.07 0.01 60 1014.3
20260906174300 79 86 1.0 6.0 0.00 0.07 0.01 66 1014.3
20260906174158 79 108 1.0 6.0 0.00 0.07 0.01 69 1014.3
20260906174052 79 65 1.0 6.0 0.00 0.07 0.01 67 1014.3
20260906173945 79 239 1.0 6.0 0.00 0.07 0.01 64 1014.2
20260906173619 79 349 1.0 6.0 0.00 0.07 0.01 63 1014.3
20260906173515 79 5 0.0 6.0 0.00 0.07 0.01 64 1014.3
20260906173409 79 12 0.0 6.0 0.00 0.07 0.01 65 1014.3
20260906173303 79 350 0.0 6.0 0.00 0.07 0.01 69 1014.3
20260906173159 79 288 0.0 4.0 0.00 0.07 0.01 68 1014.3
20260906173056 79 112 0.0 4.0 0.00 0.07 0.01 65 1014.3
20260906172954 80 251 0.0 4.0 0.00 0.07 0.01 67 1014.3
20260906172849 80 10 0.0 4.0 0.00 0.07 0.01 66 1014.3
20260906172747 80 140 0.0 4.0 0.00 0.07 0.01 66 1014.3
20260906172204 79 37 0.0 4.0 0.00 0.07 0.01 64 1014.4
20260906172102 79 28 0.0 4.0 0.00 0.07 0.01 64 1014.5
20260906172000 79 58 1.0 4.0 0.00 0.07 0.01 62 1014.5
20260906171857 79 36 1.0 4.0 0.00 0.07 0.01 62 1014.5
20260906171528 79 255 0.0 3.0 0.00 0.07 0.01 67 1014.5
20260906171423 79 230 0.0 3.0 0.00 0.07 0.01 67 1014.5
20260906170843 79 266 0.0 3.0 0.00 0.07 0.01 66 1014.5
20260906170740 79 39 0.0 3.0 0.00 0.07 0.01 68 1014.6
20260906170416 79 337 1.0 7.0 0.00 0.07 0.01 69 1014.6
20260906170046 79 32 1.0 7.0 0.00 0.07 0.01 69 1014.6
20260906165942 79 32 1.0 7.0 0.00 0.07 0.01 68 1014.6
20260906165613 79 96 1.0 7.0 0.00 0.07 0.01 67 1014.6
20260906165512 79 63 1.0 7.0 0.00 0.07 0.01 68 1014.6
20260906165405 79 342 1.0 7.0 0.00 0.07 0.01 68 1014.6
20260906165258 79 17 1.0 7.0 0.00 0.07 0.01 67 1014.7
20260906165156 79 131 1.0 7.0 0.00 0.07 0.01 69 1014.7
20260906165049 79 0 1.0 7.0 0.00 0.07 0.01 67 1014.7
20260906164944 79 16 1.0 7.0 0.00 0.07 0.01 66 1014.7
20260906164841 79 74 1.0 7.0 0.00 0.07 0.01 62 1014.7
20260906164735 79 21 0.0 7.0 0.00 0.07 0.01 64 1014.7
20260906164629 78 277 0.0 5.0 0.00 0.07 0.01 61 1014.7
20260906164523 78 76 0.0 3.0 0.00 0.07 0.01 62 1014.7
20260906164155 79 67 0.0 4.0 0.00 0.07 0.01 69 1014.7
20260906164054 79 101 0.0 4.0 0.00 0.07 0.01 64 1014.8
20260906163950 79 305 0.0 4.0 0.00 0.07 0.01 66 1014.8
20260906163845 79 220 0.0 4.0 0.00 0.07 0.01 65 1014.8
20260906163739 79 329 0.0 4.0 0.00 0.07 0.01 67 1014.8
20260906163634 79 46 0.0 4.0 0.00 0.07 0.01 66 1014.8
20260906163532 79 9 0.0 4.0 0.00 0.07 0.01 66 1014.8
20260906163427 79 0 0.0 4.0 0.00 0.07 0.01 66 1014.7
20260906163322 79 121 0.0 4.0 0.00 0.07 0.01 65 1014.8
20260906163216 78 121 0.0 4.0 0.00 0.07 0.01 66 1014.8
20260906163110 78 230 0.0 4.0 0.00 0.07 0.01 66 1014.8
20260906163007 78 111 0.0 4.0 0.00 0.07 0.01 69 1014.8
20260906162424 78 229 1.0 4.0 0.00 0.07 0.01 68 1014.8
20260906162322 78 355 1.0 3.0 0.00 0.07 0.01 64 1014.8
20260906162216 78 88 0.0 3.0 0.00 0.07 0.01 69 1014.9
20260906162111 78 214 0.0 3.0 0.00 0.07 0.01 71 1014.9
20260906161749 77 112 0.0 3.0 0.00 0.07 0.01 66 1015.0
20260906161646 77 88 0.0 2.0 0.00 0.07 0.01 72 1014.9
20260906161542 77 5 0.0 2.0 0.00 0.07 0.01 68 1015.0
20260906161440 77 277 0.0 2.0 0.00 0.07 0.01 70 1014.9
20260906161335 78 281 0.0 2.0 0.00 0.07 0.01 73 1014.9
20260906161227 78 317 0.0 2.0 0.00 0.07 0.01 70 1014.9
20260906161124 78 76 0.0 2.0 0.00 0.07 0.01 70 1014.9
20260906161020 78 80 0.0 2.0 0.00 0.07 0.01 67 1014.9
20260906160914 78 80 0.0 2.0 0.00 0.07 0.01 72 1015.0
20260906160811 78 355 0.0 2.0 0.00 0.07 0.01 69 1014.9
20260906160708 78 67 0.0 2.0 0.00 0.07 0.01 69 1015.0
20260906160604 77 279 0.0 2.0 0.00 0.07 0.01 69 1014.9
20260906160501 78 95 0.0 2.0 0.00 0.07 0.01 67 1014.9
20260906160355 78 43 0.0 2.0 0.00 0.07 0.01 70 1014.9
20260906160253 77 63 0.0 2.0 0.00 0.07 0.01 73 1014.9
20260906160148 78 18 0.0 2.0 0.00 0.07 0.01 70 1014.9
20260906160041 78 18 0.0 2.0 0.00 0.07 0.01 68 1014.9
20260906155939 77 27 0.0 2.0 0.00 0.07 0.01 73 1014.8
20260906155835 77 43 0.0 2.0 0.00 0.07 0.01 72 1014.9
20260906155730 77 30 0.0 3.0 0.00 0.07 0.01 68 1014.9
20260906155626 77 80 0.0 3.0 0.00 0.07 0.01 67 1014.9
20260906155523 77 65 0.0 3.0 0.00 0.07 0.01 74 1014.9
20260906155419 77 27 0.0 3.0 0.00 0.07 0.01 73 1014.9
20260906155312 77 211 0.0 3.0 0.00 0.07 0.01 71 1014.9
20260906155208 77 153 0.0 3.0 0.00 0.07 0.01 68 1014.9
20260906155106 77 140 0.0 3.0 0.00 0.07 0.01 68 1014.9
20260906154959 77 42 0.0 3.0 0.00 0.07 0.01 69 1014.9
20260906154854 77 33 0.0 3.0 0.00 0.07 0.01 69 1014.9
20260906154750 77 248 0.0 3.0 0.00 0.07 0.01 69 1014.9
20260906154643 77 264 0.0 3.0 0.00 0.07 0.01 68 1014.9
20260906154538 77 172 0.0 3.0 0.00 0.07 0.01 70 1014.9
20260906154432 77 336 0.0 3.0 0.00 0.07 0.01 72 1014.9
20260906154329 77 17 0.0 3.0 0.00 0.07 0.01 72 1014.9
20260906154000 76 45 0.0 3.0 0.00 0.07 0.01 72 1014.9
20260906153634 76 11 0.0 5.0 0.00 0.07 0.01 72 1014.8
20260906153310 76 217 1.0 5.0 0.00 0.07 0.01 76 1014.8
20260906153207 76 95 1.0 5.0 0.00 0.07 0.01 74 1014.7
20260906153059 76 34 1.0 5.0 0.00 0.07 0.01 74 1014.7
20260906152731 75 348 1.0 5.0 0.00 0.07 0.01 74 1014.8
20260906152629 75 275 1.0 5.0 0.00 0.07 0.01 70 1014.8
20260906152301 76 306 0.0 5.0 0.00 0.07 0.01 72 1014.8
20260906152154 76 281 0.0 5.0 0.00 0.07 0.01 69 1014.8
20260906152048 77 132 0.0 5.0 0.00 0.07 0.01 70 1014.8
20260906151944 76 311 0.0 5.0 0.00 0.07 0.01 71 1014.8
20260906151841 76 22 0.0 5.0 0.00 0.07 0.01 72 1014.8
20260906151734 76 238 0.0 3.0 0.00 0.07 0.01 71 1014.8
20260906151628 76 342 0.0 3.0 0.00 0.07 0.01 71 1014.8
20260906151521 76 298 0.0 3.0 0.00 0.07 0.01 72 1014.8
20260906151413 75 59 0.0 2.0 0.00 0.07 0.01 72 1014.8
20260906151307 75 5 0.0 2.0 0.00 0.07 0.01 73 1014.8
20260906151203 75 5 0.0 3.0 0.00 0.07 0.01 72 1014.9
20260906151056 75 40 0.0 3.0 0.00 0.07 0.01 72 1014.9
20260906150950 75 40 0.0 3.0 0.00 0.07 0.01 72 1014.9
20260906150846 75 77 0.0 3.0 0.00 0.07 0.01 74 1014.9
20260906150742 75 55 0.0 3.0 0.00 0.07 0.01 74 1014.9
20260906150640 75 29 0.0 3.0 0.00 0.07 0.01 72 1014.9
20260906150533 75 98 0.0 3.0 0.00 0.06 0.01 70 1014.9
20260906150430 75 93 0.0 3.0 0.00 0.06 0.01 72 1014.9
20260906150327 75 70 0.0 3.0 0.00 0.06 0.00 71 1014.9
20260906150001 75 55 0.0 3.0 0.00 0.06 0.00 72 1014.9
20260906145859 75 34 0.0 3.0 0.00 0.06 0.00 73 1014.9
20260906145750 75 17 0.0 3.0 0.00 0.06 0.00 74 1014.9
20260906145647 75 54 0.0 3.0 0.00 0.06 0.00 75 1014.8
20260906145545 75 292 0.0 3.0 0.00 0.06 0.00 72 1014.8
20260906145440 75 302 0.0 3.0 0.00 0.06 0.00 74 1014.8
20260906145338 75 265 0.0 3.0 0.00 0.06 0.00 75 1014.8
20260906145233 75 15 0.0 3.0 0.00 0.06 0.00 73 1014.8
20260906145131 75 119 0.0 3.0 0.00 0.06 0.00 75 1014.8
20260906145028 75 67 0.0 3.0 0.00 0.06 0.00 73 1014.8
20260906144921 75 0 0.0 3.0 0.00 0.06 0.00 75 1014.8
20260906144815 75 327 0.0 3.0 0.00 0.06 0.00 74 1014.7
20260906144712 75 53 0.0 3.0 0.00 0.06 0.00 75 1014.7
20260906144606 75 305 0.0 3.0 0.00 0.06 0.00 75 1014.7
20260906144503 75 253 0.0 3.0 0.00 0.06 0.00 78 1014.7
20260906144359 75 258 0.0 3.0 0.00 0.06 0.00 77 1014.7
20260906144252 75 355 0.0 2.0 0.00 0.06 0.00 77 1014.7
20260906144149 74 282 0.0 2.0 0.00 0.06 0.00 81 1014.7
20260906143824 74 53 0.0 2.0 0.00 0.06 0.00 79 1014.6
20260906143716 74 53 0.0 2.0 0.00 0.06 0.00 77 1014.6
20260906143613 74 304 0.0 2.0 0.00 0.06 0.00 79 1014.6
20260906143506 74 259 0.0 2.0 0.00 0.06 0.00 77 1014.6
20260906143140 74 233 0.0 2.0 0.00 0.06 0.00 77 1014.6
20260906143035 73 183 0.0 4.0 0.00 0.06 0.00 76 1014.6
20260906142711 74 341 0.0 4.0 0.00 0.06 0.00 79 1014.6
20260906142606 73 350 0.0 4.0 0.00 0.06 0.00 80 1014.6
20260906142502 73 316 0.0 4.0 0.00 0.06 0.00 80 1014.6
20260906142359 73 268 0.0 4.0 0.00 0.06 0.00 81 1014.6
20260906142256 73 321 0.0 4.0 0.00 0.06 0.00 82 1014.6
20260906142152 73 312 0.0 4.0 0.00 0.06 0.00 81 1014.6
20260906142045 73 207 0.0 4.0 0.00 0.06 0.00 83 1014.6
20260906141942 73 355 0.0 4.0 0.00 0.06 0.00 82 1014.6
20260906141836 73 273 0.0 4.0 0.00 0.06 0.00 80 1014.6
20260906141732 72 123 0.0 4.0 0.00 0.06 0.00 79 1014.7
20260906141628 72 24 0.0 4.0 0.00 0.06 0.00 80 1014.6
20260906141520 72 38 0.0 4.0 0.00 0.06 0.00 83 1014.6
20260906141415 72 9 0.0 4.0 0.00 0.06 0.00 83 1014.6
20260906141309 72 5 0.0 4.0 0.00 0.06 0.00 80 1014.6
20260906141206 72 82 0.0 4.0 0.00 0.06 0.00 79 1014.6
20260906141059 72 47 0.0 2.0 0.00 0.06 0.00 82 1014.6
20260906140954 72 47 0.0 2.0 0.00 0.06 0.00 80 1014.6
20260906140409 71 83 0.0 2.0 0.00 0.06 0.00 81 1014.6
20260906140305 71 56 0.0 2.0 0.00 0.06 0.00 83 1014.7
20260906140158 71 24 0.0 2.0 0.00 0.06 0.00 83 1014.7
20260906140054 71 38 0.0 2.0 0.00 0.06 0.00 88 1014.6
20260906135726 71 0 0.0 2.0 0.00 0.06 0.00 87 1014.6
20260906135623 71 355 0.0 2.0 0.00 0.06 0.00 87 1014.6
20260906135517 71 35 0.0 2.0 0.00 0.06 0.00 86 1014.6
20260906135415 71 9 0.0 2.0 0.00 0.06 0.00 87 1014.6
20260906135311 71 310 0.0 2.0 0.00 0.06 0.00 84 1014.6
20260906135205 71 32 0.0 2.0 0.00 0.06 0.00 81 1014.6
20260906135059 71 177 0.0 2.0 0.00 0.06 0.00 81 1014.5
20260906134955 70 144 0.0 2.0 0.00 0.06 0.00 83 1014.6
20260906134849 70 38 0.0 2.0 0.00 0.06 0.00 85 1014.6
20260906134744 70 40 0.0 2.0 0.00 0.06 0.00 86 1014.6
20260906134642 70 348 0.0 2.0 0.00 0.06 0.00 88 1014.6
20260906134536 70 73 0.0 2.0 0.00 0.06 0.00 84 1014.6
20260906134430 70 73 0.0 2.0 0.00 0.06 0.00 83 1014.6
20260906134325 70 73 0.0 2.0 0.00 0.06 0.00 85 1014.6
20260906134219 70 67 0.0 2.0 0.00 0.06 0.00 85 1014.5
20260906134115 70 45 0.0 2.0 0.00 0.06 0.00 87 1014.6
20260906134013 70 229 0.0 2.0 0.00 0.06 0.00 87 1014.6
20260906133908 69 306 0.0 2.0 0.00 0.06 0.00 87 1014.6
20260906133806 69 288 0.0 2.0 0.00 0.06 0.00 88 1014.6
20260906133659 69 68 0.0 2.0 0.00 0.06 0.00 90 1014.6
20260906133557 69 336 0.0 2.0 0.00 0.06 0.00 89 1014.6
20260906133449 69 335 0.0 2.0 0.00 0.06 0.00 90 1014.6
20260906133342 69 284 0.0 2.0 0.00 0.06 0.00 91 1014.6
20260906133238 69 319 0.0 2.0 0.00 0.06 0.00 91 1014.6
20260906133130 69 316 0.0 2.0 0.00 0.06 0.00 91 1014.6
20260906133027 69 265 0.0 0.0 0.00 0.06 0.00 91 1014.6
20260906132920 69 101 0.0 0.0 0.00 0.06 0.00 91 1014.6
20260906132554 69 11 0.0 0.0 0.00 0.06 0.00 90 1014.5
20260906132447 68 19 0.0 0.0 0.00 0.06 0.00 90 1014.5
20260906132343 68 55 0.0 0.0 0.00 0.06 0.00 90 1014.5
20260906132241 68 42 0.0 0.0 0.00 0.06 0.00 89 1014.5
20260906131659 68 51 0.0 2.0 0.00 0.06 0.00 91 1014.5
20260906131335 67 280 0.0 0.0 0.00 0.06 0.00 91 1014.5
20260906131228 67 317 0.0 0.0 0.00 0.06 0.00 89 1014.4
20260906130858 67 296 0.0 1.0 0.00 0.06 0.00 93 1014.4
20260906130756 66 296 0.0 1.0 0.00 0.06 0.00 96 1014.4
20260906130654 66 338 0.0 1.0 0.00 0.06 0.00 97 1014.4
20260906130550 66 308 0.0 1.0 0.00 0.06 0.00 97 1014.4
20260906130223 65 345 0.0 1.0 0.00 0.06 0.00 97 1014.3
20260906130119 65 345 0.0 1.0 0.00 0.06 0.00 97 1014.3
20260906125751 65 5 0.0 2.0 0.00 0.06 0.00 97 1014.4
20260906125646 65 19 0.0 2.0 0.00 0.06 0.00 97 1014.4
20260906125539 65 19 0.0 2.0 0.00 0.06 0.00 97 1014.4
20260906125437 64 0 0.0 2.0 0.00 0.06 0.00 97 1014.4
20260906125114 64 0 0.0 2.0 0.00 0.06 0.00 97 1014.4
20260906124745 64 11 0.0 2.0 0.00 0.06 0.00 97 1014.4
20260906124643 64 11 0.0 2.0 0.00 0.06 0.00 97 1014.4
20260906124539 64 11 0.0 2.0 0.00 0.06 0.00 97 1014.3
20260906124432 64 11 0.0 2.0 0.00 0.06 0.00 97 1014.4
20260906124326 64 11 0.0 2.0 0.00 0.06 0.00 97 1014.4
20260906124219 64 53 0.0 2.0 0.00 0.06 0.00 97 1014.4
20260906123852 64 325 0.0 2.0 0.00 0.06 0.00 97 1014.4
20260906123748 64 336 0.0 1.0 0.00 0.06 0.00 97 1014.4
20260906123645 64 336 0.0 1.0 0.00 0.06 0.00 97 1014.4
20260906123326 64 311 0.0 1.0 0.00 0.06 0.00 97 1014.4
20260906123222 64 311 0.0 1.0 0.00 0.06 0.00 97 1014.3
20260906123120 64 311 0.0 1.0 0.00 0.06 0.00 97 1014.3
20260906122756 64 314 0.0 1.0 0.00 0.06 0.00 97 1014.3
20260906122650 64 323 0.0 1.0 0.00 0.06 0.00 97 1014.3
20260906122548 64 323 0.0 1.0 0.00 0.06 0.00 97 1014.3
20260906122446 64 323 0.0 1.0 0.00 0.06 0.00 97 1014.3
20260906122339 63 323 0.0 1.0 0.00 0.06 0.00 97 1014.3
20260906122233 63 323 0.0 1.0 0.00 0.06 0.00 97 1014.3
20260906122131 63 323 0.0 1.0 0.00 0.06 0.00 97 1014.3
20260906122026 63 323 0.0 0.0 0.00 0.06 0.00 97 1014.3
20260906121446 63 323 0.0 0.0 0.00 0.06 0.00 97 1014.2
20260906121338 63 323 0.0 0.0 0.00 0.06 0.00 97 1014.2
20260906121236 63 323 0.0 0.0 0.00 0.06 0.00 97 1014.2
20260906121127 63 323 0.0 0.0 0.00 0.06 0.00 97 1014.1
20260906121023 63 323 0.0 0.0 0.00 0.06 0.00 97 1014.1
20260906120918 63 294 0.0 0.0 0.00 0.06 0.00 97 1014.1
20260906120813 63 294 0.0 0.0 0.00 0.06 0.00 97 1014.1
20260906120452 63 294 0.0 0.0 0.00 0.06 0.00 97 1014.0
20260906120128 63 294 0.0 0.0 0.00 0.06 0.00 97 1014.0
20260906120021 63 294 0.0 0.0 0.00 0.06 0.00 97 1014.0
20260906115657 63 294 0.0 0.0 0.00 0.06 0.00 97 1014.0
20260906115554 63 294 0.0 0.0 0.00 0.06 0.00 97 1014.1
20260906114747 63 298 0.0 0.0 0.00 0.06 0.00 97 1013.8
20260906114643 63 298 0.0 0.0 0.00 0.06 0.00 97 1013.8
20260906114323 63 252 0.0 0.0 0.00 0.06 0.00 97 1013.8
20260906114221 63 252 0.0 0.0 0.00 0.06 0.00 97 1013.8
20260906114117 63 252 0.0 0.0 0.00 0.06 0.00 97 1013.8
20260906114015 63 252 0.0 0.0 0.00 0.06 0.00 97 1013.8
20260906113907 63 252 0.0 0.0 0.00 0.06 0.00 97 1013.8
20260906113802 63 252 0.0 0.0 0.00 0.06 0.00 97 1013.8
20260906113437 63 252 0.0 0.0 0.00 0.06 0.00 97 1013.7
20260906113336 63 252 0.0 0.0 0.00 0.06 0.00 97 1013.7
20260906113016 63 252 0.0 0.0 0.00 0.06 0.00 97 1013.7
20260906112914 63 252 0.0 0.0 0.00 0.06 0.00 96 1013.7
20260906112810 63 252 0.0 0.0 0.00 0.06 0.00 97 1013.7
20260906112225 63 252 0.0 0.0 0.00 0.06 0.00 97 1013.6
20260906112120 63 252 0.0 0.0 0.00 0.06 0.00 96 1013.6
20260906112014 63 252 0.0 0.0 0.00 0.06 0.00 97 1013.6
20260906111647 63 337 0.0 0.0 0.00 0.06 0.00 97 1013.6
20260906111100 63 337 0.0 0.0 0.00 0.06 0.00 96 1013.6
20260906110956 63 337 0.0 0.0 0.00 0.06 0.00 96 1013.5
20260906110851 63 337 0.0 0.0 0.00 0.06 0.00 96 1013.5
20260906110745 63 337 0.0 0.0 0.00 0.06 0.00 96 1013.5
20260906110420 63 337 0.0 0.0 0.00 0.06 0.00 96 1013.5
20260906110313 63 337 0.0 0.0 0.00 0.06 0.00 96 1013.5
20260906105950 63 337 0.0 0.0 0.00 0.06 0.00 96 1013.4
20260906105843 63 337 0.0 1.0 0.00 0.06 0.00 96 1013.4
20260906105739 63 337 0.0 1.0 0.00 0.06 0.00 96 1013.4
20260906105631 63 337 0.0 0.0 0.00 0.06 0.00 96 1013.3
20260906105528 63 337 0.0 0.0 0.00 0.06 0.00 96 1013.4
20260906105423 63 337 0.0 0.0 0.00 0.06 0.00 96 1013.3
20260906105316 63 337 0.0 0.0 0.00 0.06 0.00 96 1013.5
20260906105209 63 337 0.0 0.0 0.00 0.06 0.00 96 1013.4
20260906105102 63 337 0.0 0.0 0.00 0.06 0.00 96 1013.4
20260906104956 63 337 0.0 0.0 0.00 0.06 0.00 96 1013.3
20260906104849 63 337 0.0 0.0 0.00 0.06 0.00 96 1013.3
20260906104528 63 337 0.0 0.0 0.00 0.06 0.00 96 1013.2
20260906104422 63 337 0.0 0.0 0.00 0.06 0.00 96 1013.2
20260906104317 63 337 0.0 0.0 0.00 0.06 0.00 96 1013.2
20260906104211 63 337 0.0 0.0 0.00 0.06 0.00 96 1013.2
20260906103843 63 337 0.0 0.0 0.00 0.06 0.00 96 1013.1
20260906103742 63 337 0.0 0.0 0.00 0.06 0.00 96 1013.1
20260906103637 63 337 0.0 0.0 0.00 0.06 0.00 96 1013.1
20260906103532 63 337 0.0 0.0 0.00 0.06 0.00 96 1013.0
20260906103429 63 337 0.0 0.0 0.00 0.06 0.00 96 1013.0
20260906103327 63 337 0.0 0.0 0.00 0.06 0.00 96 1013.1
20260906102743 63 337 0.0 0.0 0.00 0.06 0.00 96 1013.0
20260906102636 63 337 0.0 0.0 0.00 0.06 0.00 96 1013.0
20260906102531 63 337 0.0 0.0 0.00 0.06 0.00 96 1013.0
20260906102428 63 337 0.0 0.0 0.00 0.06 0.00 96 1013.0
20260906102323 63 337 0.0 0.0 0.00 0.06 0.00 96 1013.0
20260906102216 63 337 0.0 0.0 0.00 0.06 0.00 96 1013.0
20260906102112 63 337 0.0 0.0 0.00 0.06 0.00 96 1013.0
20260906102011 63 337 0.0 0.0 0.00 0.06 0.00 96 1013.0
20260906101907 63 337 0.0 0.0 0.00 0.06 0.00 96 1012.9
20260906101804 63 337 0.0 0.0 0.00 0.06 0.00 96 1013.0
20260906101700 63 337 0.0 0.0 0.00 0.06 0.00 96 1012.9
20260906101553 63 337 0.0 0.0 0.00 0.06 0.00 96 1012.9
20260906101450 63 337 0.0 0.0 0.00 0.06 0.00 96 1012.9
20260906101125 63 337 0.0 0.0 0.00 0.06 0.00 96 1012.8
20260906100803 63 337 0.0 0.0 0.00 0.06 0.00 96 1012.8
20260906100214 63 337 0.0 0.0 0.00 0.06 0.00 96 1012.8
20260906095855 63 337 0.0 0.0 0.00 0.06 0.00 96 1012.7
20260906095751 63 337 0.0 0.0 0.00 0.06 0.00 96 1012.8
20260906095645 63 337 0.0 0.0 0.00 0.06 0.00 96 1012.7
20260906095322 63 337 0.0 0.0 0.00 0.06 0.00 96 1012.7
20260906095217 63 337 0.0 0.0 0.00 0.06 0.00 96 1012.6
20260906095111 63 337 0.0 0.0 0.00 0.06 0.00 96 1012.6
20260906095005 63 337 0.0 0.0 0.00 0.06 0.00 96 1012.6
20260906094419 63 337 0.0 0.0 0.00 0.06 0.00 96 1012.6
20260906094317 63 337 0.0 0.0 0.00 0.06 0.00 96 1012.6
20260906094215 64 337 0.0 0.0 0.00 0.06 0.00 96 1012.6
20260906094111 64 337 0.0 0.0 0.00 0.06 0.00 96 1012.6
20260906094008 64 337 0.0 0.0 0.00 0.06 0.00 96 1012.6
20260906093901 64 337 0.0 0.0 0.00 0.06 0.00 96 1012.6
20260906093759 64 337 0.0 0.0 0.00 0.06 0.00 96 1012.6
20260906093654 64 337 0.0 0.0 0.00 0.06 0.00 96 1012.6
20260906093549 64 337 0.0 0.0 0.00 0.06 0.00 96 1012.5
20260906093443 64 337 0.0 0.0 0.00 0.06 0.00 96 1012.5
20260906093340 64 337 0.0 0.0 0.00 0.06 0.00 96 1012.5
20260906093237 64 337 0.0 0.0 0.00 0.06 0.00 96 1012.6
20260906093135 64 337 0.0 0.0 0.00 0.06 0.00 96 1012.6
20260906092812 64 337 0.0 0.0 0.00 0.06 0.00 96 1012.5
20260906092708 64 337 0.0 0.0 0.00 0.06 0.00 96 1012.4
20260906092601 64 337 0.0 0.0 0.00 0.06 0.00 96 1012.4
20260906092456 64 337 0.0 0.0 0.00 0.06 0.00 96 1012.5
20260906092354 64 337 0.0 0.0 0.00 0.06 0.00 96 1012.5
20260906092248 64 337 0.0 0.0 0.00 0.06 0.00 96 1012.4
20260906092144 64 337 0.0 0.0 0.00 0.06 0.00 96 1012.5
20260906092041 64 337 0.0 0.0 0.00 0.06 0.00 97 1012.4
20260906091936 64 337 0.0 0.0 0.00 0.06 0.00 96 1012.4
20260906091831 64 337 0.0 0.0 0.00 0.06 0.00 96 1012.4
20260906091509 64 337 0.0 0.0 0.00 0.06 0.00 96 1012.4
20260906091146 64 337 0.0 0.0 0.00 0.06 0.00 96 1012.4
20260906091040 64 337 0.0 0.0 0.00 0.06 0.00 96 1012.4
20260906090934 64 337 0.0 0.0 0.00 0.06 0.00 96 1012.3
20260906090831 64 337 0.0 0.0 0.00 0.06 0.00 96 1012.3
20260906090725 64 337 0.0 0.0 0.00 0.06 0.00 96 1012.3
20260906090619 64 337 0.0 0.0 0.00 0.06 0.00 96 1012.2
20260906090514 64 337 0.0 0.0 0.00 0.06 0.00 96 1012.3
20260906090405 64 337 0.0 0.0 0.00 0.06 0.00 96 1012.3
20260906090301 64 337 0.0 0.0 0.00 0.06 0.00 96 1012.3
20260906090157 64 337 0.0 0.0 0.00 0.06 0.00 96 1012.3
20260906085831 64 337 0.0 0.0 0.00 0.06 0.00 96 1012.2
20260906085728 64 337 0.0 0.0 0.00 0.06 0.00 96 1012.2
20260906085621 64 337 0.0 0.0 0.00 0.06 0.00 96 1012.2
20260906085517 64 337 0.0 0.0 0.00 0.06 0.00 96 1012.2
20260906085415 64 337 0.0 0.0 0.00 0.06 0.00 96 1012.2
20260906085311 64 337 0.0 0.0 0.00 0.06 0.00 96 1012.2
20260906085208 64 337 0.0 0.0 0.00 0.06 0.00 96 1012.1
20260906085103 64 337 0.0 0.0 0.00 0.06 0.00 96 1012.1
20260906084734 64 337 0.0 0.0 0.00 0.06 0.00 96 1012.0
20260906084628 64 337 0.0 0.0 0.00 0.06 0.00 96 1012.0
20260906084525 64 337 0.0 0.0 0.00 0.06 0.00 96 1012.0
20260906084202 64 337 0.0 0.0 0.00 0.06 0.00 96 1011.9
20260906083834 64 337 0.0 0.0 0.00 0.06 0.00 96 1011.9
20260906083731 64 337 0.0 0.0 0.00 0.06 0.00 96 1011.9
20260906083628 64 337 0.0 0.0 0.00 0.06 0.00 96 1011.9
20260906083521 64 337 0.0 0.0 0.00 0.06 0.00 96 1011.9
20260906083416 64 337 0.0 0.0 0.00 0.06 0.00 96 1011.9
20260906083312 64 337 0.0 0.0 0.00 0.06 0.00 96 1011.9
20260906083207 64 337 0.0 0.0 0.00 0.06 0.00 96 1011.9
20260906083101 64 337 0.0 0.0 0.00 0.06 0.00 96 1012.0
20260906082956 64 337 0.0 0.0 0.00 0.06 0.00 96 1011.9
20260906082850 64 337 0.0 0.0 0.00 0.06 0.00 96 1011.9
20260906082523 64 337 0.0 0.0 0.00 0.06 0.00 96 1012.0
20260906082417 64 337 0.0 0.0 0.00 0.06 0.00 96 1011.9
20260906082311 65 337 0.0 0.0 0.00 0.06 0.00 96 1011.9
20260906081501 65 337 0.0 0.0 0.00 0.06 0.00 96 1011.8
20260906081357 65 337 0.0 0.0 0.00 0.06 0.00 96 1011.8
20260906081251 65 337 0.0 0.0 0.00 0.06 0.00 96 1011.8
20260906081147 65 337 0.0 0.0 0.00 0.06 0.00 96 1011.8
20260906081043 65 337 0.0 0.0 0.00 0.06 0.00 96 1011.8
20260906080937 65 337 0.0 0.0 0.00 0.06 0.00 96 1011.8
20260906080612 65 337 0.0 0.0 0.00 0.06 0.00 96 1011.8
20260906080509 65 337 0.0 0.0 0.00 0.06 0.00 96 1011.8
20260906080403 65 337 0.0 0.0 0.00 0.06 0.00 96 1011.8
20260906080255 65 337 0.0 0.0 0.00 0.06 0.00 96 1011.8
20260906080152 65 337 0.0 0.0 0.00 0.06 0.00 96 1011.8
20260906075829 65 337 0.0 0.0 0.00 0.06 0.00 96 1011.8
20260906075725 65 337 0.0 0.0 0.00 0.06 0.00 96 1011.8
20260906075618 65 337 0.0 0.0 0.00 0.06 0.00 96 1011.8
20260906075515 65 337 0.0 0.0 0.00 0.06 0.00 96 1011.8
20260906075153 65 337 0.0 0.0 0.00 0.06 0.00 96 1011.8
20260906074829 65 304 0.0 0.0 0.00 0.06 0.00 96 1011.8
20260906074725 65 304 0.0 0.0 0.00 0.06 0.00 96 1011.7
20260906074620 65 303 0.0 0.0 0.00 0.06 0.00 96 1011.7
20260906074518 65 304 0.0 0.0 0.00 0.06 0.00 96 1011.7
20260906074412 65 304 0.0 0.0 0.00 0.06 0.00 96 1011.7
20260906074306 65 304 0.0 0.0 0.00 0.06 0.00 96 1011.7
20260906073941 65 304 0.0 0.0 0.00 0.06 0.00 96 1011.6
20260906073616 65 304 0.0 0.0 0.00 0.06 0.00 96 1011.7
20260906073249 65 304 0.0 0.0 0.00 0.06 0.00 96 1011.8
20260906073143 65 304 0.0 0.0 0.00 0.06 0.00 96 1011.8
20260906073037 65 304 0.0 0.0 0.00 0.06 0.00 96 1011.8
20260906072931 65 304 0.0 0.0 0.00 0.06 0.00 96 1011.8
20260906072829 65 304 0.0 0.0 0.00 0.06 0.00 96 1011.8
20260906072504 65 304 0.0 0.0 0.00 0.06 0.00 96 1011.8
20260906072401 65 304 0.0 0.0 0.00 0.06 0.00 96 1011.8
20260906072258 66 304 0.0 0.0 0.00 0.06 0.00 96 1011.8
20260906072156 66 304 0.0 0.0 0.00 0.06 0.00 96 1011.8
20260906072052 66 304 0.0 0.0 0.00 0.06 0.00 96 1011.7
20260906071725 66 304 0.0 0.0 0.00 0.06 0.00 96 1011.7
20260906071617 66 304 0.0 0.0 0.00 0.06 0.00 96 1011.7
20260906071510 66 304 0.0 0.0 0.00 0.06 0.00 96 1011.7
20260906071408 66 304 0.0 0.0 0.00 0.06 0.00 96 1011.7
20260906071305 66 304 0.0 0.0 0.00 0.06 0.00 96 1011.7
20260906071200 66 304 0.0 0.0 0.00 0.06 0.00 96 1011.8
20260906071053 66 304 0.0 0.0 0.00 0.06 0.00 96 1011.7
20260906070946 66 304 0.0 0.0 0.00 0.06 0.00 96 1011.7
20260906070622 66 304 0.0 0.0 0.00 0.06 0.00 96 1011.7
20260906070516 66 304 0.0 0.0 0.00 0.06 0.00 96 1011.7
20260906070411 66 304 0.0 0.0 0.00 0.06 0.00 96 1011.7
20260906065602 66 304 0.0 0.0 0.00 0.06 0.00 96 1011.8
20260906065456 66 304 0.0 0.0 0.00 0.06 0.00 96 1011.8
20260906065354 66 304 0.0 0.0 0.00 0.06 0.00 96 1011.8
20260906065248 66 304 0.0 0.0 0.00 0.06 0.00 96 1011.9
20260906065143 66 304 0.0 0.0 0.00 0.06 0.00 96 1011.8
20260906065039 66 304 0.0 0.0 0.00 0.06 0.00 96 1011.9
20260906064936 66 304 0.0 0.0 0.00 0.06 0.00 96 1011.9
20260906064834 66 304 0.0 0.0 0.00 0.06 0.00 96 1011.9
20260906064729 66 304 0.0 0.0 0.00 0.06 0.00 96 1011.8
20260906064626 66 304 0.0 0.0 0.00 0.06 0.00 96 1011.8
20260906064519 67 304 0.0 0.0 0.00 0.06 0.00 96 1011.9
20260906064412 67 304 0.0 0.0 0.00 0.06 0.00 96 1011.9
20260906064306 67 304 0.0 0.0 0.00 0.06 0.00 96 1011.9
20260906064202 67 304 0.0 0.0 0.00 0.06 0.00 96 1011.9
20260906064054 67 304 0.0 0.0 0.00 0.06 0.00 96 1011.9
20260906063948 67 304 0.0 0.0 0.00 0.06 0.00 96 1011.9
20260906063844 67 304 0.0 0.0 0.00 0.06 0.00 96 1011.9
20260906063736 67 304 0.0 0.0 0.00 0.06 0.00 96 1011.9
20260906063629 67 304 0.0 0.0 0.00 0.06 0.00 96 1011.8
20260906063041 67 304 0.0 0.0 0.00 0.06 0.00 96 1011.9
20260906062934 67 304 0.0 0.0 0.00 0.06 0.00 96 1011.8
20260906062827 67 304 0.0 0.0 0.00 0.06 0.00 96 1011.9
20260906062502 67 304 0.0 0.0 0.00 0.06 0.00 96 1011.8
20260906062359 67 304 0.0 0.0 0.00 0.06 0.00 96 1011.8
20260906062034 67 304 0.0 0.0 0.00 0.06 0.00 96 1011.8
20260906061713 67 304 0.0 0.0 0.00 0.06 0.00 96 1011.8
20260906061607 67 304 0.0 0.0 0.00 0.06 0.00 96 1011.8
20260906061502 67 304 0.0 0.0 0.00 0.06 0.00 96 1011.8
20260906061357 67 304 0.0 0.0 0.00 0.06 0.00 96 1011.7
20260906061249 67 304 0.0 0.0 0.00 0.06 0.00 96 1011.7
20260906061143 67 304 0.0 0.0 0.00 0.06 0.00 96 1011.7
20260906061036 67 304 0.0 0.0 0.00 0.06 0.00 96 1011.7
20260906060934 67 304 0.0 0.0 0.00 0.06 0.00 96 1011.7
20260906060827 67 304 0.0 0.0 0.00 0.06 0.00 96 1011.7
20260906060506 67 304 0.0 0.0 0.00 0.06 0.00 96 1011.6
20260906060400 67 303 0.0 0.0 0.00 0.06 0.00 96 1011.7
20260906060255 67 304 0.0 0.0 0.00 0.06 0.00 96 1011.7
20260906060149 67 304 0.0 0.0 0.00 0.06 0.00 96 1011.7
20260906060042 67 304 0.0 0.0 0.00 0.06 0.00 96 1011.7
20260906055937 67 304 0.0 0.0 0.00 0.06 0.00 96 1011.7
20260906055834 67 304 0.0 0.0 0.00 0.06 0.00 96 1011.7
20260906055728 67 304 0.0 0.0 0.00 0.06 0.00 96 1011.7
20260906055627 68 304 0.0 0.0 0.00 0.06 0.00 96 1011.7
20260906055523 68 304 0.0 0.0 0.00 0.06 0.00 96 1011.7
20260906055417 68 304 0.0 0.0 0.00 0.06 0.00 96 1011.6
20260906055052 68 304 0.0 0.0 0.00 0.06 0.00 96 1011.6
20260906054944 68 304 0.0 0.0 0.00 0.06 0.00 96 1011.6
20260906054619 68 304 0.0 0.0 0.00 0.06 0.00 96 1011.7
20260906054516 68 304 0.0 0.0 0.00 0.06 0.00 96 1011.7
20260906054415 68 304 0.0 0.0 0.00 0.06 0.00 96 1011.7
20260906054310 68 304 0.0 0.0 0.00 0.06 0.00 96 1011.6
20260906054203 68 304 0.0 0.0 0.00 0.06 0.00 96 1011.6
20260906054100 68 304 0.0 0.0 0.00 0.06 0.00 96 1011.6
20260906053958 68 304 0.0 0.0 0.00 0.06 0.00 96 1011.6
20260906053854 68 304 0.0 0.0 0.00 0.06 0.00 96 1011.6
20260906053750 68 304 0.0 0.0 0.00 0.06 0.00 96 1011.6
20260906053647 68 304 0.0 0.0 0.00 0.06 0.00 96 1011.6
20260906053544 68 304 0.0 0.0 0.00 0.06 0.00 96 1011.6
20260906053440 68 303 0.0 0.0 0.00 0.06 0.00 96 1011.6
20260906053337 68 304 0.0 0.0 0.00 0.06 0.00 96 1011.6
20260906053232 68 304 0.0 0.0 0.00 0.06 0.00 96 1011.6
20260906053128 68 304 0.0 0.0 0.00 0.06 0.00 96 1011.6
20260906052759 68 304 0.0 0.0 0.00 0.06 0.00 96 1011.6
20260906052654 68 304 0.0 0.0 0.00 0.06 0.00 96 1011.6
20260906052546 68 304 0.0 0.0 0.00 0.06 0.00 96 1011.6
20260906052444 68 304 0.0 0.0 0.00 0.06 0.00 96 1011.6
20260906052339 68 304 0.0 0.0 0.00 0.06 0.00 96 1011.6
20260906052233 68 304 0.0 0.0 0.00 0.06 0.00 96 1011.6
20260906052130 68 304 0.0 0.0 0.00 0.06 0.00 96 1011.6
20260906052024 68 304 0.0 0.0 0.00 0.06 0.00 96 1011.6
20260906051917 68 304 0.0 0.0 0.00 0.06 0.00 96 1011.6
20260906051814 68 304 0.0 0.0 0.00 0.06 0.00 96 1011.7
20260906051709 68 304 0.0 0.0 0.00 0.06 0.00 96 1011.6
20260906051604 68 304 0.0 0.0 0.00 0.06 0.00 96 1011.6
20260906051455 68 304 0.0 0.0 0.00 0.06 0.00 96 1011.7
20260906051130 68 304 0.0 0.0 0.00 0.06 0.00 96 1011.7
20260906051027 68 304 0.0 0.0 0.00 0.06 0.00 96 1011.7
20260906050704 68 304 0.0 0.0 0.00 0.06 0.00 96 1011.7
20260906050600 68 304 0.0 0.0 0.00 0.06 0.00 96 1011.8
20260906050457 68 304 0.0 0.0 0.00 0.06 0.00 96 1011.8
20260906050351 68 304 0.0 0.0 0.00 0.06 0.00 96 1011.8
20260906050022 69 304 0.0 0.0 0.00 0.06 0.00 96 1011.8
20260906045918 69 304 0.0 0.0 0.00 0.06 0.00 96 1011.8
20260906045815 69 304 0.0 0.0 0.00 0.06 0.00 96 1011.9
20260906045710 69 304 0.0 0.0 0.00 0.06 0.00 96 1011.9
20260906045605 69 304 0.0 0.0 0.00 0.06 0.00 96 1011.9
20260906045503 69 303 0.0 0.0 0.00 0.06 0.00 96 1011.8
20260906045400 69 304 0.0 0.0 0.00 0.06 0.00 96 1011.9
20260906045253 69 304 0.0 0.0 0.00 0.06 0.00 96 1011.9
20260906045149 69 304 0.0 0.0 0.00 0.06 0.00 96 1011.9
20260906045043 69 304 0.0 0.0 0.00 0.06 0.00 96 1011.9
20260906044936 69 304 0.0 0.0 0.00 0.06 0.00 96 1011.9
20260906044609 69 304 0.0 0.0 0.00 0.06 0.00 96 1011.8
20260906044501 69 304 0.0 0.0 0.00 0.06 0.00 96 1011.8
20260906044354 69 304 0.0 0.0 0.00 0.06 0.00 96 1011.8
20260906044251 69 304 0.0 0.0 0.00 0.06 0.00 96 1011.8
20260906044148 69 304 0.0 0.0 0.00 0.06 0.00 96 1011.8
20260906044042 69 304 0.0 0.0 0.00 0.06 0.00 96 1011.8
20260906043936 69 304 0.0 0.0 0.00 0.06 0.00 96 1011.9
20260906043830 69 304 0.0 0.0 0.00 0.06 0.00 96 1011.9
20260906043246 69 304 0.0 0.0 0.00 0.06 0.00 96 1011.9
20260906043142 69 304 0.0 0.0 0.00 0.06 0.00 96 1011.9
20260906043038 69 304 0.0 0.0 0.00 0.06 0.00 96 1011.9
20260906042931 69 304 0.0 0.0 0.00 0.06 0.00 96 1011.9
20260906042829 69 304 0.0 0.0 0.00 0.06 0.00 96 1011.9
20260906042722 69 304 0.0 0.0 0.00 0.06 0.00 96 1011.9
20260906042616 69 304 0.0 0.0 0.00 0.06 0.00 96 1011.9
20260906042514 69 304 0.0 0.0 0.00 0.06 0.00 96 1011.9
20260906042408 69 304 0.0 0.0 0.00 0.06 0.00 96 1011.9
20260906042044 69 304 0.0 0.0 0.00 0.06 0.00 96 1012.0
20260906041715 70 304 0.0 0.0 0.00 0.06 0.00 96 1012.0
20260906041612 70 304 0.0 0.0 0.00 0.06 0.00 96 1012.0
20260906041505 70 304 0.0 0.0 0.00 0.06 0.00 96 1012.0
20260906041401 70 304 0.0 0.0 0.00 0.06 0.00 96 1012.0
20260906041033 70 304 0.0 0.0 0.00 0.06 0.00 96 1012.2
20260906040926 70 304 0.0 0.0 0.00 0.06 0.00 96 1012.2
20260906040821 70 304 0.0 0.0 0.00 0.06 0.00 96 1012.2
20260906040455 70 304 0.0 0.0 0.00 0.06 0.00 96 1012.3
20260906040128 70 304 0.0 0.0 0.00 0.06 0.00 96 1012.1
20260906040024 70 304 0.0 0.0 0.00 0.06 0.00 96 1012.1
20260906035918 70 304 0.0 0.0 0.00 0.06 0.06 96 1012.0
20260906035812 70 304 0.0 0.0 0.00 0.06 0.06 96 1012.0
20260906035447 70 304 0.0 0.0 0.00 0.06 0.06 96 1012.1
20260906035342 70 304 0.0 0.0 0.00 0.06 0.06 96 1012.0
20260906034535 70 304 0.0 0.0 0.00 0.06 0.06 96 1012.2
20260906034430 70 304 0.0 0.0 0.00 0.06 0.06 96 1012.2
20260906034326 70 304 0.0 0.0 0.00 0.06 0.06 96 1012.1
20260906034225 70 304 0.0 0.0 0.00 0.06 0.06 96 1012.1
20260906034122 70 304 0.0 0.0 0.00 0.06 0.06 96 1012.1
20260906034016 70 304 0.0 0.0 0.00 0.06 0.06 96 1012.1
20260906033650 70 304 0.0 0.0 0.00 0.06 0.06 96 1012.1
20260906033544 70 304 0.0 0.0 0.00 0.06 0.06 96 1012.1
20260906033436 70 304 0.0 0.0 0.00 0.06 0.06 96 1012.1
20260906033333 70 304 0.0 0.0 0.00 0.06 0.06 96 1012.1
20260906033231 70 304 0.0 0.0 0.00 0.06 0.06 96 1012.0
20260906032906 70 304 0.0 0.0 0.00 0.06 0.06 96 1012.1
20260906032803 70 304 0.0 0.0 0.00 0.06 0.06 96 1012.1
20260906032658 70 304 0.0 0.0 0.00 0.06 0.06 96 1012.1
20260906032550 70 304 0.0 0.0 0.00 0.06 0.06 96 1012.1
20260906032443 70 304 0.0 0.0 0.00 0.06 0.06 96 1012.1
20260906032337 70 304 0.0 0.0 0.00 0.06 0.06 96 1012.1
20260906032230 70 304 0.0 0.0 0.00 0.06 0.06 96 1012.1
20260906032124 70 304 0.0 0.0 0.00 0.06 0.06 96 1012.1
20260906032020 70 304 0.0 0.0 0.00 0.06 0.06 96 1012.1
20260906031916 70 304 0.0 0.0 0.00 0.06 0.06 96 1012.1
20260906031552 70 304 0.0 0.0 0.00 0.06 0.06 96 1012.0
20260906031447 70 304 0.0 0.0 0.00 0.06 0.06 96 1012.0
20260906031343 70 304 0.0 0.0 0.00 0.06 0.06 96 1012.0
20260906031236 70 304 0.0 0.0 0.00 0.06 0.06 96 1012.0
20260906031130 70 304 0.0 0.0 0.00 0.06 0.06 96 1012.0
20260906031028 70 304 0.0 0.0 0.00 0.06 0.06 96 1012.0
20260906030920 70 304 0.0 0.0 0.00 0.06 0.06 96 1012.0
20260906030814 70 304 0.0 0.0 0.00 0.06 0.06 96 1012.0
20260906030705 70 304 0.0 0.0 0.00 0.06 0.06 96 1012.0
20260906030558 70 304 0.0 0.0 0.00 0.06 0.06 96 1012.0
20260906030232 70 304 0.0 0.0 0.00 0.06 0.06 96 1012.0
20260906030126 70 304 0.0 0.0 0.00 0.06 0.06 96 1012.0
20260906030020 70 304 0.0 0.0 0.00 0.06 0.06 96 1012.0
20260906025913 70 304 0.0 0.0 0.00 0.06 0.06 96 1012.0
20260906025808 70 304 0.0 0.0 0.00 0.06 0.06 96 1012.0
20260906025705 70 304 0.0 0.0 0.00 0.06 0.06 96 1011.9
20260906025558 70 304 0.0 0.0 0.00 0.06 0.06 96 1011.9
20260906025450 70 304 0.0 0.0 0.00 0.06 0.06 96 1011.9
20260906025342 70 304 0.0 0.0 0.00 0.06 0.06 96 1011.8
20260906025237 70 304 0.0 0.0 0.00 0.06 0.06 96 1011.8
20260906025129 70 304 0.0 0.0 0.00 0.06 0.06 96 1011.8
20260906025025 70 304 0.0 0.0 0.00 0.06 0.06 96 1011.8
20260906024922 70 304 0.0 0.0 0.00 0.06 0.06 96 1011.9
20260906024556 70 304 0.0 0.0 0.00 0.06 0.06 96 1012.0
20260906024228 70 304 0.0 0.0 0.00 0.06 0.06 96 1011.9
20260906024123 70 304 0.0 0.0 0.00 0.06 0.06 96 1011.9
20260906024017 70 304 0.0 0.0 0.00 0.06 0.06 96 1011.9
20260906023914 70 304 0.0 0.0 0.00 0.06 0.06 96 1011.9
20260906023812 70 304 0.0 0.0 0.00 0.06 0.06 96 1011.9
20260906023707 70 304 0.0 0.0 0.00 0.06 0.06 96 1011.9
20260906023602 70 304 0.0 0.0 0.00 0.06 0.06 96 1011.9
20260906023456 70 304 0.0 0.0 0.00 0.06 0.06 96 1011.9
20260906023351 70 304 0.0 0.0 0.00 0.06 0.06 96 1011.9
20260906023246 70 304 0.0 0.0 0.00 0.06 0.06 96 1011.8
20260906023139 70 304 0.0 0.0 0.00 0.06 0.06 96 1011.8
20260906023032 70 304 0.0 0.0 0.00 0.06 0.06 96 1011.7
20260906022928 70 304 0.0 0.0 0.00 0.06 0.06 96 1011.7
20260906022824 70 304 0.0 0.0 0.00 0.06 0.06 96 1011.7
20260906022502 71 304 0.0 0.0 0.00 0.06 0.06 96 1011.7
20260906022134 70 304 0.0 0.0 0.00 0.06 0.06 96 1011.7
20260906022032 70 304 0.0 0.0 0.00 0.06 0.06 96 1011.7
20260906021931 70 304 0.0 0.0 0.00 0.06 0.06 96 1011.8
20260906021604 70 304 0.0 0.0 0.00 0.06 0.06 96 1011.7
20260906021238 71 304 0.0 0.0 0.00 0.06 0.06 96 1011.7
20260906021134 70 304 0.0 0.0 0.00 0.06 0.06 96 1011.7
20260906021028 71 304 0.0 0.0 0.00 0.06 0.06 96 1011.7
20260906020921 71 304 0.0 0.0 0.00 0.06 0.06 96 1011.7
20260906020814 71 304 0.0 0.0 0.00 0.06 0.06 96 1011.6
20260906020710 71 304 0.0 0.0 0.00 0.06 0.06 96 1011.7
20260906020608 71 304 0.0 0.0 0.00 0.06 0.06 96 1011.7
20260906020247 71 304 0.0 0.0 0.00 0.06 0.06 96 1011.8
20260906020140 71 304 0.0 0.0 0.00 0.06 0.06 96 1011.8
20260906015813 71 304 0.0 0.0 0.00 0.06 0.06 96 1011.8
20260906015708 71 304 0.0 0.0 0.00 0.06 0.06 96 1011.8
20260906015606 71 304 0.0 0.0 0.00 0.06 0.06 96 1011.8
20260906015502 71 304 0.0 0.0 0.00 0.06 0.06 96 1011.8
20260906015134 71 281 0.0 0.0 0.00 0.06 0.06 96 1011.7
20260906015029 71 281 0.0 0.0 0.00 0.06 0.06 96 1011.7
20260906014923 71 281 0.0 0.0 0.00 0.06 0.06 96 1011.7
20260906014816 70 281 0.0 0.0 0.00 0.06 0.06 96 1011.7
20260906014713 71 281 0.0 0.0 0.00 0.06 0.06 96 1011.6
20260906014607 71 281 0.0 0.0 0.00 0.06 0.06 96 1011.6
20260906014500 71 281 0.0 0.0 0.00 0.06 0.06 96 1011.6
20260906014353 71 281 0.0 0.0 0.00 0.06 0.06 96 1011.6
20260906014247 71 281 0.0 0.0 0.00 0.06 0.06 96 1011.5
20260906013922 71 281 0.0 0.0 0.00 0.06 0.06 96 1011.4
20260906013557 70 281 0.0 0.0 0.00 0.06 0.06 96 1011.3
20260906013453 71 281 0.0 0.0 0.00 0.06 0.06 96 1011.3
20260906013349 71 281 0.0 0.0 0.00 0.06 0.06 96 1011.3
20260906013246 71 281 0.0 0.0 0.00 0.06 0.06 96 1011.3
20260906013142 71 281 0.0 0.0 0.00 0.06 0.06 96 1011.4
20260906012820 71 281 0.0 0.0 0.00 0.06 0.06 96 1011.4
20260906012716 71 281 0.0 0.0 0.00 0.06 0.06 96 1011.3
20260906012609 71 281 0.0 0.0 0.00 0.06 0.06 95 1011.4
20260906012504 71 281 0.0 0.0 0.00 0.06 0.06 95 1011.4
20260906012358 71 281 0.0 0.0 0.00 0.06 0.06 96 1011.4
20260906012252 71 281 0.0 0.0 0.00 0.06 0.06 96 1011.3
20260906012148 71 281 0.0 0.0 0.00 0.06 0.06 95 1011.3
20260906012043 71 281 0.0 0.0 0.00 0.06 0.06 95 1011.3
20260906011938 71 281 0.0 0.0 0.00 0.06 0.06 95 1011.2
20260906011835 71 281 0.0 0.0 0.00 0.06 0.06 95 1011.2
20260906011729 71 281 0.0 0.0 0.00 0.06 0.06 95 1011.2
20260906011624 71 281 0.0 0.0 0.00 0.06 0.06 95 1011.2
20260906011520 71 281 0.0 0.0 0.00 0.06 0.06 95 1011.2
20260906011415 71 281 0.0 0.0 0.00 0.06 0.06 95 1011.1
20260906011308 71 281 0.0 0.0 0.00 0.06 0.06 95 1011.1
20260906011201 71 281 0.0 0.0 0.00 0.06 0.06 95 1011.1
20260906011054 71 281 0.0 0.0 0.00 0.06 0.06 95 1011.1
20260906010948 71 281 0.0 0.0 0.00 0.06 0.06 95 1011.0
20260906010625 71 281 0.0 0.0 0.00 0.06 0.06 95 1011.0
20260906010517 71 281 0.0 0.0 0.00 0.06 0.06 95 1011.0
20260906010412 71 281 0.0 0.0 0.00 0.06 0.06 95 1011.0
20260906010309 71 281 0.0 0.0 0.00 0.06 0.06 95 1010.9
20260906010206 71 281 0.0 0.0 0.00 0.06 0.06 95 1011.0
20260906010057 71 281 0.0 0.0 0.00 0.06 0.06 95 1010.9
20260906005952 71 281 0.0 0.0 0.00 0.06 0.06 95 1010.9
20260906005846 71 281 0.0 0.0 0.00 0.06 0.06 95 1010.9
20260906005738 71 281 0.0 0.0 0.00 0.06 0.06 95 1010.8
20260906005631 71 281 0.0 0.0 0.00 0.06 0.06 95 1010.9
20260906005526 71 281 0.0 0.0 0.00 0.06 0.06 95 1010.9
20260906005424 71 281 0.0 0.0 0.00 0.06 0.06 95 1010.9
20260906005318 71 281 0.0 0.0 0.00 0.06 0.06 95 1010.8
20260906005214 71 281 0.0 0.0 0.00 0.06 0.06 95 1010.8
20260906005109 71 281 0.0 0.0 0.00 0.06 0.06 95 1010.7
20260906004741 71 281 0.0 0.0 0.00 0.06 0.06 95 1010.7
20260906004637 71 281 0.0 0.0 0.00 0.06 0.06 95 1010.7
20260906004531 71 281 0.0 0.0 0.00 0.06 0.06 95 1010.7
20260906004427 71 281 0.0 0.0 0.00 0.06 0.06 95 1010.7
20260906004324 71 281 0.0 0.0 0.00 0.06 0.06 95 1010.7
20260906004221 71 281 0.0 0.0 0.00 0.06 0.06 95 1010.7
20260906004116 71 281 0.0 0.0 0.00 0.06 0.06 94 1010.7
20260906003533 71 281 0.0 0.0 0.00 0.06 0.06 94 1010.6
20260906003427 71 281 0.0 0.0 0.00 0.06 0.06 94 1010.6
20260906003102 71 281 0.0 0.0 0.00 0.06 0.06 94 1010.6
20260906002738 71 281 0.0 0.0 0.00 0.06 0.06 94 1010.6
20260906002631 71 281 0.0 0.0 0.00 0.06 0.06 94 1010.6
20260906002528 72 281 0.0 0.0 0.00 0.06 0.06 94 1010.6
20260906002424 72 281 0.0 0.0 0.00 0.06 0.06 94 1010.6
20260906002318 72 281 0.0 0.0 0.00 0.06 0.06 94 1010.6
20260906002211 72 281 0.0 0.0 0.00 0.06 0.06 94 1010.6
20260906002110 72 281 0.0 0.0 0.00 0.06 0.06 94 1010.6
20260906001525 72 281 0.0 0.0 0.00 0.06 0.06 94 1010.5
20260906001423 72 281 0.0 0.0 0.00 0.06 0.06 94 1010.5
20260906001318 72 281 0.0 0.0 0.00 0.06 0.06 94 1010.5
20260906001211 72 281 0.0 0.0 0.00 0.06 0.06 94 1010.6
20260906001105 72 281 0.0 0.0 0.00 0.06 0.06 94 1010.6
20260906000957 72 281 0.0 0.0 0.00 0.06 0.06 94 1010.6
20260906000853 72 281 0.0 0.0 0.00 0.06 0.06 94 1010.6
20260906000751 72 281 0.0 1.0 0.00 0.06 0.06 94 1010.6
20260906000426 72 281 0.0 1.0 0.00 0.06 0.06 94 1010.6
20260906000319 72 281 0.0 0.0 0.00 0.06 0.06 94 1010.6
20260906000212 72 281 0.0 0.0 0.00 0.06 0.06 94 1010.6
20260906000105 72 281 0.0 0.0 0.00 0.06 0.06 94 1010.6
20260906000003 72 281 0.0 0.0 0.00 0.06 0.06 94 1010.6
20260905235640 72 281 0.0 0.0 0.00 0.06 0.06 94 1010.6
20260905235534 72 281 0.0 0.0 0.00 0.06 0.06 94 1010.6
20260905235426 72 281 0.0 0.0 0.00 0.06 0.06 94 1010.6
20260905235320 72 281 0.0 0.0 0.00 0.06 0.06 94 1010.6
20260905235214 72 281 0.0 0.0 0.00 0.06 0.06 94 1010.5
20260905234850 72 281 0.0 0.0 0.00 0.06 0.06 94 1010.5
20260905234744 72 281 0.0 0.0 0.00 0.06 0.06 94 1010.5
20260905234642 72 281 0.0 0.0 0.00 0.06 0.06 94 1010.5
20260905234319 72 281 0.0 0.0 0.00 0.06 0.06 94 1010.6